, CO

(GMT )
Mount Werner

Weather History for K3MW - April, 2013

Change the Weather History Date:

Tuesday, April 9, 2013

  Actual Average Record
Temperature  
Mean Temperature 17 °F -  
Max Temperature 26 °F - - ()
Min Temperature 8 °F - - ()
Degree Days  
Heating Degree Days 48    
Moisture  
Dew Point 8 °F    
Average Humidity 73    
Maximum Humidity 86    
Minimum Humidity 58    
Precipitation  
Precipitation 0.00 in - - ()
Sea Level Pressure  
Sea Level Pressure 29.51 in    
Wind  
Wind Speed 22 mph (NE)    
Max Wind Speed 33 mph    
Max Gust Speed 48 mph    
Visibility 4 miles    
Events Snow    
T = Trace of Precipitation, MM = Missing Value Source: NWS Daily Summary

Daily Weather History Graph

Daily Weather History Graph

Search for Another Location

Airport or City:

Trip Planner

Search our weather history database for the weather conditions in past years. The results will help you decide how hot, cold, wet, or windy it might be!

Date:

Astronomy

Apr. 09, 2013 Rise Set
Actual Time 6:37 AM MDT 7:40 PM MDT
Civil Twilight 6:09 AM MDT 8:08 PM MDT
Nautical Twilight 5:36 AM MDT 8:41 PM MDT
Astronomical Twilight 5:01 AM MDT 9:16 PM MDT
Moon 6:01 AM MDT (4/9) 7:18 PM MDT (4/9)
Length of Visible Light 13h 58m
Length of Day
13h 02m
Waning Crescent, 0% of the Moon is Illuminated
Apr 9
Waning Crescent
Apr 10
New
Apr 18
First Quarter
Apr 25
Full
May 2
Last Quarter

Hourly Weather History & Observations

Time (MDT) Temp. Windchill Dew Point Humidity Pressure Visibility Wind Dir Wind Speed Gust Speed Precip Events Conditions
12:16 AM 24.8 °F 10.0 °F 21.2 °F 86% 29.42 in - East 21.9 mph 31.1 mph N/A   Unknown
12:36 AM 24.8 °F 9.3 °F 21.2 °F 86% 29.41 in - ENE 24.2 mph 28.8 mph N/A   Unknown
12:56 AM 23.0 °F 6.3 °F 19.4 °F 86% 29.42 in - NE 26.5 mph 39.1 mph N/A   Overcast
1:16 AM 23.0 °F 6.3 °F 19.4 °F 86% 29.41 in - ENE 26.5 mph 35.7 mph N/A   Unknown
1:36 AM 21.2 °F 4.2 °F 17.6 °F 86% 29.42 in - ENE 25.3 mph 36.8 mph N/A   Unknown
1:56 AM 26.6 °F 21.2 °F 21.2 °F 80% 29.49 in 0.5 mi NNW 4.6 mph - N/A Snow Light Snow
2:16 AM 21.2 °F 7.3 °F 17.6 °F 86% 29.48 in 0.2 mi NE 16.1 mph 21.9 mph N/A Snow Heavy Snow
2:36 AM 21.2 °F 6.0 °F 15.8 °F 80% 29.47 in 0.8 mi NE 19.6 mph 28.8 mph N/A Snow Snow
2:56 AM 19.4 °F 3.2 °F 14.0 °F 80% 29.46 in 2.5 mi NE 20.7 mph 31.1 mph N/A Snow Light Snow
3:16 AM 17.6 °F 0.9 °F 12.2 °F 79% 29.44 in 4.0 mi NE 20.7 mph 33.4 mph N/A   Haze
3:36 AM 15.8 °F -4.1 °F 10.4 °F 79% 29.42 in 1.5 mi NE 28.8 mph 36.8 mph N/A Snow Light Snow
3:56 AM 14.0 °F -5.8 °F 8.6 °F 79% 29.43 in 1.8 mi NE 26.5 mph 41.4 mph N/A Snow Light Snow
4:16 AM 12.2 °F -8.2 °F 8.6 °F 85% 29.42 in 2.5 mi NE 26.5 mph 39.1 mph N/A Snow Light Snow
4:36 AM 12.2 °F -8.6 °F 6.8 °F 79% 29.42 in 2.5 mi NE 27.6 mph 40.3 mph N/A   Haze
4:56 AM 12.2 °F -7.9 °F 6.8 °F 79% 29.42 in 3.0 mi NE 25.3 mph 35.7 mph N/A   Haze
5:16 AM 12.2 °F -9.6 °F 6.8 °F 79% 29.42 in 3.0 mi ENE 31.1 mph 41.4 mph N/A   Haze
5:36 AM 12.2 °F -7.9 °F 6.8 °F 79% 29.44 in 3.0 mi ENE 25.3 mph 39.1 mph N/A   Haze
5:56 AM 12.2 °F -8.9 °F 6.8 °F 79% 29.43 in 2.5 mi NE 28.8 mph 39.1 mph N/A   Haze
6:16 AM 12.2 °F -8.2 °F 5.0 °F 73% 29.44 in 4.0 mi NE 26.5 mph 41.4 mph N/A   Haze
6:36 AM 10.4 °F -11.7 °F 5.0 °F 79% 29.43 in 4.0 mi NE 29.9 mph 40.3 mph N/A   Haze
6:56 AM 10.4 °F -12.7 °F 5.0 °F 79% 29.43 in 4.0 mi NE 33.4 mph 43.7 mph N/A   Haze
7:16 AM 10.4 °F -11.7 °F 5.0 °F 79% 29.43 in 4.0 mi NE 29.9 mph 39.1 mph N/A   Haze
7:36 AM 10.4 °F -11.4 °F 5.0 °F 79% 29.45 in 2.5 mi NE 28.8 mph 39.1 mph N/A   Haze
7:56 AM 10.4 °F -12.0 °F 5.0 °F 79% 29.45 in 4.0 mi NE 31.1 mph 43.7 mph N/A   Haze
8:16 AM 10.4 °F -11.7 °F 5.0 °F 79% 29.44 in 4.0 mi NE 29.9 mph 41.4 mph N/A   Haze
8:36 AM 10.4 °F -12.7 °F 5.0 °F 79% 29.45 in 5.0 mi NE 33.4 mph 43.7 mph N/A   Haze
8:56 AM 10.4 °F -12.0 °F 3.2 °F 73% 29.44 in 3.0 mi NE 31.1 mph 43.7 mph N/A   Haze
9:16 AM 10.4 °F -12.7 °F 3.2 °F 73% 29.44 in 3.0 mi NE 33.4 mph 46.0 mph N/A   Haze
9:36 AM 10.4 °F -12.0 °F 3.2 °F 73% 29.45 in 0.8 mi NE 31.1 mph 46.0 mph N/A Snow Light Snow
9:56 AM 8.6 °F -13.8 °F 1.4 °F 73% 29.47 in 0.2 mi NE 28.8 mph 46.0 mph N/A Snow Heavy Snow
10:16 AM 8.6 °F -13.8 °F 3.2 °F 79% 29.47 in 0.2 mi NE 28.8 mph 40.3 mph N/A Snow Snow
10:36 AM 10.4 °F -11.7 °F 5.0 °F 79% 29.46 in 0.2 mi NE 29.9 mph 43.7 mph N/A Snow Light Snow
10:56 AM 12.2 °F -9.9 °F 6.8 °F 79% 29.44 in 1.2 mi ENE 32.2 mph 48.3 mph N/A Snow Light Snow
11:16 AM 14.0 °F -6.5 °F 8.6 °F 79% 29.46 in 3.0 mi ENE 28.8 mph 42.6 mph N/A Snow Light Snow
11:36 AM 14.0 °F -7.1 °F 8.6 °F 79% 29.45 in 3.0 mi ENE 31.1 mph 42.6 mph N/A   Haze
11:56 AM 14.0 °F -5.5 °F 8.6 °F 79% 29.47 in 5.0 mi ENE 25.3 mph 41.4 mph N/A   Haze
12:16 PM 14.0 °F -7.1 °F 6.8 °F 73% 29.45 in 2.5 mi ENE 31.1 mph 43.7 mph N/A   Haze
12:36 PM 14.0 °F -7.7 °F 6.8 °F 73% 29.44 in 2.5 mi ENE 33.4 mph 48.3 mph N/A   Haze
12:56 PM 15.8 °F -4.4 °F 6.8 °F 68% 29.44 in 3.0 mi ENE 29.9 mph 44.9 mph N/A   Haze
1:16 PM 17.6 °F -0.6 °F 6.8 °F 63% 29.45 in 5.0 mi ENE 25.3 mph 38.0 mph N/A   Haze
1:36 PM 17.6 °F 1.3 °F 6.8 °F 63% 29.46 in 5.0 mi NE 19.6 mph 38.0 mph N/A   Haze
1:56 PM 14.0 °F -5.1 °F 5.0 °F 67% 29.46 in 7.0 mi NE 24.2 mph 43.7 mph N/A   Overcast
2:16 PM 17.6 °F -1.0 °F 6.8 °F 63% 29.46 in 7.0 mi ENE 26.5 mph 40.3 mph N/A   Scattered Clouds
2:36 PM 19.4 °F 3.2 °F 8.6 °F 63% 29.47 in 7.0 mi ENE 20.7 mph 39.1 mph N/A Snow Light Snow
2:56 PM 21.2 °F 6.0 °F 8.6 °F 58% 29.48 in 10.0 mi NE 19.6 mph 31.1 mph N/A Snow Light Snow
3:16 PM 21.2 °F 7.3 °F 8.6 °F 58% 29.50 in 10.0 mi ENE 16.1 mph 32.2 mph N/A Snow Light Snow
3:36 PM 23.0 °F 8.7 °F 10.4 °F 59% 29.50 in 10.0 mi NE 18.4 mph 27.6 mph N/A Snow Light Snow
3:56 PM 21.2 °F 8.3 °F 8.6 °F 58% 29.52 in 10.0 mi NE 13.8 mph 26.5 mph N/A   Mostly Cloudy
4:16 PM 19.4 °F 8.6 °F 8.6 °F 63% 29.52 in 10.0 mi NE 9.2 mph 23.0 mph N/A   Overcast
4:36 PM 17.6 °F 5.7 °F 8.6 °F 68% 29.54 in 5.0 mi NNE 10.4 mph 21.9 mph N/A   Haze
4:56 PM 17.6 °F 2.7 °F 6.8 °F 63% 29.54 in 7.0 mi NE 16.1 mph 25.3 mph N/A   Overcast
5:16 PM 17.6 °F 5.0 °F 5.0 °F 58% 29.56 in 10.0 mi NNE 11.5 mph 25.3 mph N/A   Overcast
5:36 PM 15.8 °F 1.4 °F 5.0 °F 62% 29.57 in 7.0 mi NE 13.8 mph 23.0 mph N/A Snow Light Snow
5:56 PM 14.0 °F -0.2 °F 5.0 °F 67% 29.58 in 2.0 mi NNE 12.7 mph 27.6 mph N/A Snow Light Snow
6:16 PM 14.0 °F -0.8 °F 5.0 °F 67% 29.59 in 2.0 mi NE 13.8 mph 28.8 mph N/A Snow Light Snow
6:36 PM 14.0 °F -2.0 °F 5.0 °F 67% 29.59 in 3.0 mi NNE 16.1 mph 23.0 mph N/A   Haze
6:56 PM 14.0 °F -0.2 °F 5.0 °F 67% 29.60 in 3.0 mi NNE 12.7 mph 18.4 mph N/A Snow Light Snow
7:16 PM 14.0 °F 0.5 °F 5.0 °F 67% 29.61 in 2.0 mi NNE 11.5 mph 19.6 mph N/A Snow Light Snow
7:36 PM 14.0 °F -1.4 °F 5.0 °F 67% 29.61 in 5.0 mi NNE 15.0 mph - N/A Snow Light Snow
7:56 PM 12.2 °F -1.8 °F 5.0 °F 73% 29.62 in 10.0 mi NNE 11.5 mph 18.4 mph N/A Snow Light Snow
8:16 PM 12.2 °F -1.8 °F 3.2 °F 67% 29.63 in 7.0 mi NNE 11.5 mph - N/A Snow Light Snow
8:56 PM 12.2 °F -2.5 °F 3.2 °F 67% 29.66 in 4.0 mi NNE 12.7 mph 18.4 mph N/A Snow Light Snow
9:16 PM 12.2 °F -0.2 °F 3.2 °F 67% 29.67 in 7.0 mi North 9.2 mph 16.1 mph N/A Snow Light Snow
9:36 PM 12.2 °F 0.7 °F 3.2 °F 67% 29.68 in 2.0 mi North 8.1 mph - N/A Snow Light Snow
9:56 PM 10.4 °F 2.2 °F 3.2 °F 73% 29.69 in 4.0 mi North 4.6 mph - N/A Snow Light Snow
10:16 PM 12.2 °F 4.3 °F 5.0 °F 73% 29.69 in 4.0 mi North 4.6 mph - N/A Snow Light Snow
10:36 PM 10.4 °F - 3.2 °F 73% 29.68 in 4.0 mi Calm Calm - N/A Snow Light Snow
10:56 PM 12.2 °F 4.3 °F 5.0 °F 73% 29.68 in 10.0 mi North 4.6 mph - N/A Snow Light Snow
11:16 PM 12.2 °F 2.9 °F 5.0 °F 73% 29.68 in 10.0 mi NNW 5.8 mph - N/A   Overcast
11:36 PM 12.2 °F 2.9 °F 5.0 °F 73% 29.68 in 7.0 mi NNW 5.8 mph - N/A   Overcast
11:56 PM 10.4 °F -0.4 °F 3.2 °F 73% 29.68 in 4.0 mi North 6.9 mph - N/A Snow Light Snow